COSMOS 970 DEB, 10878

Orbit data source: Space-Track

COSMOS 970 DEB, 10878 is space debris in LEO originally from a launch on Wed, 21 Dec 1977 UTC launched from the Tyuratam Missile And Space Complex (TTMTR). Debris objects in space refer to the collection of defunct objects orbiting the Earth. Examples of debris include non-operational satellites, rocket bodies, and fragments generated from explosions, collisions, or faulty payload assembly.

Loading next visibility...
Identifier
10878, 1977-121Z
Orbit
LEO
Country
Flag of CISCIS
Related business
Manufacturer
Unknown
Mission
Spacecraft
Bus & Motor
Unknown
Mass
Unknown
Launch date (UTC)
1977-12-21 (48 years ago)
Launch vehicle
Unknown
Launch site
Tyuratam Missile And Space Complex (TTMTR)
Object type
Payload
Rocket body
Debris
Shape & HBR
Unknown shape, 0.2 m
Radar Cross Section
Medium (>0.1 m² and <1 m²)

Expand to show TLE details & history
Last TLE update: 10 hours ago

TLE from 10 hours ago
0 COSMOS 970 DEB
1 10878U 77121Z   26171.47140041  .00000151  00000-0  26912-3 0  9990
2 10878  65.8406  60.4066 0120656 220.4167 319.1962 13.65240613409284
Epoch: 2026-06-20T11:18Z
TLE epoch observation values (Epoch: 2026-06-20T11:18:48.995Z)
Latitude
1.09671°
Longitude
161.52747°
Altitude
951.471 km
Speed
7.41 km/s
True Right ascension
15h 59m 40s
True Declination
1° 05' 25"
Sunlit
Object was in full shadow at epoch
Visualization orbit readout
Latitude
Unknown
Longitude
Unknown
Altitude
Unknown
Speed
Unknown
Apparent Right ascension
Unknown
Apparent Declination
Unknown
Sunlit
N/A
Visualization observer readout
Local Sidereal Time
08:33:45
Azimuth
Unknown
Elevation
Unknown
Doppler factor
Unknown
Orbital elements
Apogee altitude
1,104.436 km
Perigee altitude
926.025 km
Semi-major axis
7,393.367 km
Eccentricity
0.01207
Inclination
65.8406°
RAAN
60.4066°
Arg. of periapsis
220.4167°
True anomaly
318.28231°
Mean anomaly
319.1962°
Eccentric anomaly
318.7403°
Mean motion
3.41413 °/min
Orbital period
105.44 mins
BSTAR
0.00026912
Loading maneuver chart data...
Computing Atmospheric mass density...
Loading historical data...
Loading historical data...
Loading historical data...
Loading historical data...
Loading historical data...
Loading historical data...
Loading historical data...

Documentation

Showing up to 5 results
|